TimeCST,TemperatureF,Dew PointF,Humidity,Sea Level PressureIn,VisibilityMPH,Wind Direction,Wind SpeedMPH,Gust SpeedMPH,PrecipitationIn,Events,Conditions,WindDirDegrees,DateUTC
12:54 AM,14.0,3.0,62,30.19,10.0,NE,4.6,-,N/A,,Clear,40,2013-03-03 06:54:00
1:54 AM,12.9,1.9,62,30.19,10.0,NNE,4.6,-,N/A,,Clear,30,2013-03-03 07:54:00
3:54 AM,10.9,3.0,70,30.18,10.0,NE,5.8,-,N/A,,Clear,40,2013-03-03 09:54:00
4:54 AM,9.0,1.9,73,30.19,10.0,NE,5.8,-,N/A,,Clear,40,2013-03-03 10:54:00
5:54 AM,8.1,1.9,76,30.20,10.0,NE,5.8,-,N/A,,Clear,40,2013-03-03 11:54:00
6:54 AM,7.0,1.9,80,30.20,10.0,NE,5.8,-,N/A,,Clear,40,2013-03-03 12:54:00
7:54 AM,10.0,3.0,73,30.21,10.0,NE,5.8,-,N/A,,Clear,40,2013-03-03 13:54:00
8:54 AM,14.0,3.0,62,30.20,10.0,ENE,4.6,-,N/A,,Clear,60,2013-03-03 14:54:00
9:54 AM,16.0,3.0,57,30.19,10.0,East,4.6,-,N/A,,Clear,80,2013-03-03 15:54:00
10:54 AM,19.0,3.0,50,30.18,10.0,Calm,Calm,-,N/A,,Clear,0,2013-03-03 16:54:00
11:54 AM,21.9,1.0,40,30.17,10.0,Calm,Calm,-,N/A,,Clear,0,2013-03-03 17:54:00
12:54 PM,23.0,-2.9,32,30.14,10.0,Calm,Calm,-,N/A,,Clear,0,2013-03-03 18:54:00
1:54 PM,24.1,-2.9,31,30.12,10.0,Calm,Calm,-,N/A,,Clear,0,2013-03-03 19:54:00
2:54 PM,24.1,-7.1,25,30.11,10.0,Calm,Calm,-,0.00,,Clear,0,2013-03-03 20:54:00
3:54 PM,24.1,-7.1,25,30.11,10.0,SSW,3.5,-,N/A,,Clear,200,2013-03-03 21:54:00
4:54 PM,24.1,-4.0,29,30.11,10.0,Calm,Calm,-,N/A,,Clear,0,2013-03-03 22:54:00
5:54 PM,21.9,-4.0,32,30.11,10.0,Calm,Calm,-,N/A,,Clear,0,2013-03-03 23:54:00
6:54 PM,19.0,-2.9,38,30.12,10.0,Calm,Calm,-,N/A,,Clear,0,2013-03-04 00:54:00
7:54 PM,15.1,-2.9,45,30.12,10.0,Calm,Calm,-,N/A,,Clear,0,2013-03-04 01:54:00
8:54 PM,14.0,1.0,56,30.13,10.0,Calm,Calm,-,N/A,,Clear,0,2013-03-04 02:54:00
9:54 PM,15.1,1.0,54,30.12,10.0,Calm,Calm,-,N/A,,Clear,0,2013-03-04 03:54:00
10:54 PM,14.0,-0.9,52,30.11,10.0,Calm,Calm,-,N/A,,Clear,0,2013-03-04 04:54:00
11:54 PM,12.9,1.0,59,30.11,10.0,Calm,Calm,-,N/A,,Clear,0,2013-03-04 05:54:00